FW5398 Weather Reports


Display with metric or nautical units.
time (UTC)temp
F
wind
direction
speed
MPH
gust
MPH
rain 1hr
in
rain 24hr
in
rain mn
in
humidity
%
barometer
mb
20260507231522 51 176 5.0 14.0 0.00 0.64 0.64 86 1001.7
20260507230021 50 180 9.0 16.0 0.00 0.64 0.64 84 1001.8
20260507224523 55 151 11.0 16.0 0.00 0.64 0.64 84 1001.0
20260507223017 54 177 12.0 19.0 0.00 0.64 0.64 85 1000.5
20260507221522 54 131 13.0 20.0 0.00 0.64 0.64 85 1000.5
20260507220019 53 137 12.0 20.0 0.00 0.64 0.64 85 1000.7
20260507214514 53 128 11.0 17.0 0.00 0.64 0.64 85 1000.7
20260507213026 53 131 12.0 18.0 0.00 0.64 0.64 85 1000.7
20260507211513 53 123 16.0 23.0 0.00 0.64 0.64 85 1000.6
20260507210028 53 105 14.0 21.0 0.00 0.64 0.64 85 1000.6
20260507204510 53 135 14.0 24.0 0.01 0.64 0.64 86 1000.7
20260507203017 53 151 13.0 20.0 0.06 0.64 0.64 86 1001.0
20260507201514 54 103 13.0 20.0 0.12 0.64 0.64 86 1000.3
20260507200016 54 112 12.0 23.0 0.15 0.64 0.64 86 1000.3
20260507194506 54 114 13.0 20.0 0.17 0.63 0.63 86 1000.6
20260507193132 54 135 13.0 21.0 0.17 0.57 0.57 86 1001.2
20260507191601 54 131 16.0 26.0 0.15 0.51 0.51 86 1002.4
20260507190056 54 137 13.0 21.0 0.19 0.48 0.48 86 1002.6
20260507184555 54 122 13.0 23.0 0.26 0.46 0.46 86 1002.3
20260507183100 54 158 13.0 19.0 0.33 0.41 0.41 86 1003.1
20260507181551 54 137 13.0 26.0 0.34 0.36 0.36 86 1002.9
20260507180049 55 207 11.0 20.0 0.28 0.28 0.28 85 1003.6
20260507174547 55 187 10.0 19.0 0.19 0.20 0.20 85 1003.9
20260507173105 55 199 9.0 23.0 0.06 0.07 0.07 84 1003.7
20260507171545 56 141 9.0 21.0 0.01 0.02 0.02 84 1003.0
20260507170047 57 120 12.0 21.0 0.00 0.01 0.01 83 1002.6
20260507164541 58 176 18.0 32.0 0.00 0.01 0.01 82 1002.5
20260507163039 59 168 10.0 30.0 0.00 0.01 0.01 81 1002.9
20260507161539 60 154 18.0 34.0 0.00 0.01 0.01 81 1003.2
20260507160056 61 125 12.0 27.0 0.00 0.01 0.01 80 1004.4
20260507154535 61 135 15.0 30.0 0.00 0.01 0.01 80 1004.1
20260507153034 61 184 12.0 29.0 0.00 0.01 0.01 80 1004.5
20260507151529 60 138 11.0 22.0 0.00 0.01 0.01 80 1004.7
20260507150029 60 181 11.0 27.0 0.00 0.01 0.01 80 1005.1
20260507144541 60 154 11.0 26.0 0.00 0.01 0.01 80 1005.4
20260507143023 60 122 13.0 31.0 0.00 0.01 0.01 80 1005.5
20260507141525 60 183 20.0 31.0 0.00 0.01 0.01 80 1006.1
20260507140019 60 189 18.0 36.0 0.00 0.01 0.01 80 1006.2
20260507134520 59 245 11.0 23.0 0.00 0.01 0.01 80 1006.3
20260507133015 59 183 10.0 27.0 0.00 0.01 0.01 81 1006.4
20260507131513 58 174 12.0 30.0 0.00 0.01 0.01 81 1006.5
20260507130025 59 157 15.0 28.0 0.00 0.01 0.01 80 1007.1
20260507124515 59 234 13.0 36.0 0.00 0.01 0.01 81 1006.9
20260507123010 58 131 8.0 23.0 0.00 0.01 0.01 82 1007.5
20260507121509 58 130 9.0 30.0 0.00 0.01 0.01 82 1006.9
20260507120011 57 166 14.0 28.0 0.01 0.01 0.01 83 1007.1
20260507114505 57 115 9.0 18.0 0.01 0.01 0.01 83 1007.5
20260507113006 57 142 12.0 30.0 0.01 0.01 0.01 83 1007.6
20260507111507 58 131 12.0 35.0 0.00 0.00 0.00 82 1007.9
20260507110005 58 149 12.0 30.0 0.00 0.00 0.00 82 1008.4
20260507104502 57 141 12.0 30.0 0.00 0.00 0.00 82 1008.0
20260507103100 57 140 14.0 30.0 0.00 0.00 0.00 82 1008.2
20260507101629 57 147 10.0 24.0 0.00 0.00 0.00 82 1008.4
20260507100057 56 189 16.0 34.0 0.00 0.00 0.00 82 1008.6
20260507094557 56 183 14.0 28.0 0.00 0.00 0.00 83 1008.7
20260507093058 56 151 17.0 27.0 0.00 0.00 0.00 83 1009.1
20260507091551 56 173 11.0 26.0 0.00 0.00 0.00 83 1009.6
20260507090052 56 133 14.0 26.0 0.00 0.00 0.00 83 1009.9
20260507084548 55 147 11.0 28.0 0.00 0.00 0.00 82 1009.9
20260507083047 56 118 16.0 25.0 0.00 0.00 0.00 82 1010.2
20260507081543 56 176 7.0 17.0 0.00 0.00 0.00 81 1010.4
20260507080041 57 158 14.0 27.0 0.00 0.00 0.00 80 1009.5
20260507074537 57 132 15.0 27.0 0.00 0.00 0.00 81 1009.9
20260507073036 57 141 14.0 24.0 0.00 0.00 0.00 80 1010.5
20260507071534 57 124 12.0 31.0 0.00 0.00 0.00 80 1010.7
20260507070033 58 126 15.0 23.0 0.00 0.00 0.00 79 1011.2
20260507064532 58 149 17.0 29.0 0.00 0.00 0.00 78 1010.8
20260507063031 58 173 16.0 27.0 0.00 0.00 0.00 79 1011.1
20260507061527 58 126 14.0 23.0 0.00 0.00 0.00 89 1011.4
20260507060022 58 127 11.0 22.0 0.00 0.00 0.00 100 1011.5
20260507054521 58 120 17.0 32.0 0.00 0.00 0.00 100 1011.5
20260507053018 58 149 17.0 24.0 0.00 0.00 0.00 100 1011.9
20260507051515 57 129 13.0 22.0 0.00 0.00 0.00 100 1012.5
20260507050014 57 128 13.0 25.0 0.00 0.00 0.00 100 1012.9
20260507044512 57 152 16.0 29.0 0.00 0.00 0.00 100 1013.2
20260507043010 57 164 14.0 25.0 0.00 0.00 0.00 100 1013.4
20260507041518 57 135 12.0 25.0 0.00 0.00 0.00 100 1013.9
20260507040005 57 143 17.0 28.0 0.00 0.00 0.00 100 1014.3
20260507034501 58 118 14.0 26.0 0.00 0.00 0.00 100 1014.6
20260507033058 58 143 12.0 25.0 0.00 0.00 0.00 100 1014.9
20260507031558 58 158 14.0 20.0 0.00 0.00 0.00 100 1015.3
20260507030058 58 147 10.0 25.0 0.00 0.00 0.00 100 1015.6
20260507024551 58 193 11.0 27.0 0.00 0.00 0.00 100 1015.8
20260507023104 58 149 13.0 22.0 0.00 0.00 0.00 100 1015.9
20260507021552 58 169 15.0 30.0 0.00 0.00 0.00 100 1015.9
20260507020049 58 148 16.0 29.0 0.00 0.00 0.00 100 1016.1
20260507014558 57 180 13.0 22.0 0.00 0.00 0.00 100 1016.1
20260507013103 58 139 12.0 23.0 0.00 0.00 0.00 100 1016.2
20260507011543 58 136 15.0 24.0 0.00 0.00 0.00 100 1016.1
20260507010042 58 159 16.0 30.0 0.00 0.00 0.00 100 1016.3
20260507004540 58 115 14.0 22.0 0.00 0.00 0.00 100 1016.4
20260507003040 59 160 15.0 24.0 0.00 0.00 0.00 100 1016.4
20260507001554 60 151 14.0 29.0 0.00 0.00 0.00 100 1016.2
20260507000037 60 168 16.0 24.0 0.00 0.00 0.00 100 1016.2
20260506234534 60 149 14.0 23.0 0.00 0.00 0.00 100 1016.2
20260506233038 61 149 14.0 30.0 0.00 0.00 0.00 100 1015.8